Weather History for Sitka, AK

Change the Weather History Date:

Friday, October 12, 2012

  Actual Average Record
Temperature  
Mean Temperature 49 °F -  
Max Temperature 52 °F 50 °F 60 °F (1969)
Min Temperature 46 °F 43 °F 32 °F (1997)
Degree Days  
Heating Degree Days 16    
Moisture  
Dew Point 48 °F    
Average Humidity 92    
Maximum Humidity 100    
Minimum Humidity 61    
Precipitation  
Precipitation 1.37 in - - ()
Sea Level Pressure  
Sea Level Pressure 29.25 in    
Wind  
Wind Speed 11 mph (SSE)    
Max Wind Speed 22 mph    
Max Gust Speed 37 mph    
Visibility 5 miles    
Events Rain    
Averages and records for this station are not official NWS values.
T = Trace of Precipitation, MM = Missing Value Source: NWS Daily Summary

Daily Weather History Graph

Daily Weather History Graph

Search for Another Location

Airport:

Trip Planner

Search our weather history database for the weather conditions in past years. The results will help you decide how hot, cold, wet, or windy it might be!

Date:

Astronomy

Oct. 12, 2012 Rise Set
Actual Time 7:29 AM AKDT 6:04 PM AKDT
Civil Twilight 6:51 AM AKDT 6:43 PM AKDT
Nautical Twilight 6:06 AM AKDT 7:27 PM AKDT
Astronomical Twilight 5:22 AM AKDT 8:11 PM AKDT
Moon 3:50 AM AKDT (10/12) 4:41 PM AKDT (10/12)
Length of Visible Light 11h 52m
Length of Day
10h 35m
Waning Crescent, 10% of the Moon is Illuminated
Oct 12
Waning Crescent
Oct 15
New
Oct 21
First Quarter
Oct 29
Full
Nov 6
Last Quarter

Hourly Weather History & Observations

Time (AKDT) Temp. Windchill Dew Point Humidity Pressure Visibility Wind Dir Wind Speed Gust Speed Precip Events Conditions
12:53 AM 52.0 °F - 39.0 °F 61% 29.35 in 10.0 mi ESE 8.1 mph 19.6 mph N/A   Overcast
1:53 AM 52.0 °F - 39.0 °F 61% 29.32 in 10.0 mi ESE 15.0 mph 19.6 mph N/A   Overcast
2:53 AM 51.1 °F - 39.9 °F 66% 29.29 in 10.0 mi ESE 9.2 mph - 0.00 in   Overcast
3:53 AM 50.0 °F - 41.0 °F 71% 29.27 in 10.0 mi East 8.1 mph 18.4 mph 0.00 in Rain Light Rain
4:53 AM 48.9 °F - 43.0 °F 80% 29.24 in 10.0 mi Variable 3.5 mph - 0.00 in   Overcast
5:53 AM 48.0 °F - 44.1 °F 86% 29.21 in 10.0 mi Variable 3.5 mph - 0.00 in Rain Light Rain
6:53 AM 48.0 °F - 44.1 °F 86% 29.21 in 10.0 mi NW 5.8 mph - 0.00 in Rain Light Rain
7:53 AM 46.9 °F - 45.0 °F 93% 29.21 in 10.0 mi Calm Calm - 0.02 in Rain Light Rain
8:53 AM 46.4 °F 45.2 °F 44.6 °F 93% 29.20 in 8.0 mi NNW 3.5 mph - N/A Rain Light Rain
9:53 AM 46.9 °F - 43.0 °F 86% 29.20 in 9.0 mi ENE 4.6 mph - 0.03 in Rain Light Rain
10:53 AM 46.9 °F - 45.0 °F 93% 29.21 in 5.0 mi Calm Calm - 0.07 in Rain Rain
11:53 AM 46.9 °F - 46.0 °F 97% 29.20 in 4.0 mi North 4.6 mph - 0.11 in Rain Rain
12:19 PM 46.4 °F 45.2 °F 46.4 °F 100% 29.20 in 1.8 mi Variable 3.5 mph - 0.09 in Rain Rain
12:33 PM 46.4 °F 42.9 °F 46.4 °F 100% 29.20 in 2.0 mi Variable 6.9 mph - 0.13 in Rain Rain
12:50 PM 48.2 °F - 46.4 °F 93% 29.20 in 1.8 mi ESE 16.1 mph 21.9 mph 0.21 in Rain Heavy Rain
12:53 PM 48.9 °F - 46.0 °F 90% 29.20 in 1.8 mi ESE 16.1 mph - 0.23 in Rain Heavy Rain
1:28 PM 50.0 °F - 48.2 °F 94% 29.22 in 1.5 mi SE 15.0 mph 31.1 mph 0.21 in Rain Heavy Rain
1:44 PM 51.8 °F - 51.8 °F 100% 29.23 in 1.8 mi South 21.9 mph 36.8 mph 0.29 in Rain Rain
1:53 PM 51.1 °F - 51.1 °F 100% 29.24 in 2.0 mi South 21.9 mph 32.2 mph 0.32 in Rain Rain
2:22 PM 51.8 °F - 51.8 °F 100% 29.25 in 2.0 mi South 19.6 mph 29.9 mph 0.10 in Rain Rain
2:53 PM 51.1 °F - 51.1 °F 100% 29.26 in 2.0 mi South 20.7 mph 28.8 mph 0.19 in Rain Light Rain
2:59 PM 51.8 °F - 50.0 °F 94% 29.26 in 1.5 mi South 19.6 mph 28.8 mph 0.02 in Rain Rain
3:09 PM 51.8 °F - 50.0 °F 94% 29.26 in 1.8 mi South 18.4 mph 28.8 mph 0.03 in Rain Light Rain
3:11 PM 51.8 °F - 50.0 °F 94% 29.27 in 2.0 mi South 19.6 mph 28.8 mph 0.03 in Rain Light Rain
3:14 PM 51.8 °F - 50.0 °F 94% 29.27 in 2.0 mi South 17.3 mph 28.8 mph 0.03 in Rain Light Rain
3:32 PM 51.8 °F - 50.0 °F 94% 29.27 in 2.0 mi South 17.3 mph 27.6 mph 0.03 in Rain Light Rain
3:53 PM 51.1 °F - 50.0 °F 96% 29.27 in 2.0 mi South 17.3 mph 26.5 mph 0.04 in Rain Light Rain
4:00 PM 51.8 °F - 50.0 °F 94% 29.27 in 6.0 mi South 17.3 mph 26.5 mph 0.00 in Rain Light Rain
4:22 PM 50.0 °F - 50.0 °F 100% 29.28 in 2.0 mi South 13.8 mph - 0.00 in Rain Light Rain
4:39 PM 50.0 °F - 50.0 °F 100% 29.27 in 2.0 mi South 15.0 mph 23.0 mph 0.01 in Rain Light Rain
4:53 PM 50.0 °F - 50.0 °F 100% 29.28 in 2.0 mi South 13.8 mph - 0.02 in Rain Light Rain
5:23 PM 51.8 °F - 48.2 °F 88% 29.27 in 10.0 mi SSE 13.8 mph - 0.02 in Rain Light Rain
5:53 PM 52.0 °F - 48.0 °F 86% 29.27 in 10.0 mi SSE 9.2 mph - 0.02 in   Overcast
6:53 PM 50.0 °F - 48.9 °F 96% 29.26 in 3.0 mi SE 6.9 mph - 0.03 in Rain Rain
7:53 PM 50.0 °F - 48.9 °F 96% 29.25 in 6.0 mi SE 9.2 mph - 0.06 in Rain Light Rain
8:53 PM 50.0 °F - 48.2 °F 94% 29.24 in 4.0 mi SE 9.2 mph - N/A Rain Rain
9:53 PM 51.1 °F - 48.9 °F 92% 29.25 in 4.0 mi SSE 12.7 mph - 0.10 in Rain Light Rain
9:59 PM 51.8 °F - 50.0 °F 94% 29.25 in 2.5 mi SE 6.9 mph 19.6 mph N/A Rain Light Rain
10:03 PM 51.8 °F - 50.0 °F 94% 29.25 in 3.0 mi South 8.1 mph - 0.02 in Rain Rain
10:29 PM 51.8 °F - 51.8 °F 100% 29.27 in 2.0 mi South 19.6 mph 32.2 mph 0.12 in Rain Heavy Rain
10:53 PM 51.1 °F - 50.0 °F 96% 29.29 in 9.0 mi South 13.8 mph 23.0 mph 0.12 in Rain Light Rain
11:15 PM 51.8 °F - 50.0 °F 94% 29.31 in 10.0 mi South 13.8 mph 25.3 mph 0.00 in Rain Light Rain
11:46 PM 51.8 °F - 50.0 °F 94% 29.31 in 6.0 mi South 9.2 mph - 0.00 in Rain Light Rain
11:53 PM 50.0 °F - 50.0 °F 100% 29.31 in 3.0 mi South 10.4 mph - 0.01 in Rain Light Rain